Regional Weather Roundup
Issued by NWS

Home | Current Version | Previous Version | Text Only | Print | Product List | Glossary Off
Versions: 1 2 3 4 5 6 7 8 9 10 11 12 13 14 15 16 17 18 19 20 21 22 23 24 25 26 27 28 29 30 31 32 33 34 35 36 37 38 39 40 41 42 43 44 45 46 47 48 49 50

000
ASUS43 KFSD 242110
RWRSD

WEATHER ROUNDUP FOR SOUTH DAKOTA
NATIONAL WEATHER SERVICE SIOUX FALLS SD
400 PM CDT FRI OCT 24 2014

NOTE: "FAIR" INDICATES FEW OR NO CLOUDS BELOW 12,000 FEET WITH NO
SIGNIFICANT WEATHER AND/OR OBSTRUCTIONS TO VISIBILITY.


SDZ001>005-009-010-012>017-242200-
NORTHWEST AND NORTH CENTRAL SOUTH DAKOTA

CITY           SKY/WX    TMP DP  RH WIND       PRES   REMARKS
BUFFALO          N/A     65  29  25 N21       29.95S
FAITH            N/A     71  36  27 N16       29.97R
MOBRIDGE       SUNNY     74  39  28 NW13      29.90R
$$

SDZ012>016-024>037-041>051-057-063-072>074-242200-
SOUTHWEST AND SOUTH CENTRAL SOUTH DAKOTA

CITY           SKY/WX    TMP DP  RH WIND       PRES   REMARKS
RAPID CTY ARPT SUNNY     70  38  31 N12       30.01R
PIERRE         SUNNY     78  31  17 NW10      29.91R
CUSTER         SUNNY     70  26  19 SW8       30.09S
ELLSWORTH AFB  SUNNY     70  39  32 N12       30.01R
PHILIP         SUNNY     78  34  20 N7        29.94F
PINE RIDGE     SUNNY     77  34  21 CALM      30.00S
SPEARFISH      FAIR      64  37  36 N7        30.06R
WINNER         FAIR      79  25  13 VRB3      29.93S
$$

SDZ004>011-016>023-039-040-242200-
NORTHEAST SOUTH DAKOTA

CITY           SKY/WX    TMP DP  RH WIND       PRES   REMARKS
ABERDEEN       MOSUNNY   79  38  22 W13       29.86S
WATERTOWN      MOSUNNY   72  39  30 NW10      29.88S
SISSETON         N/A     76  39  26 NW12      29.82S
$$

SDZ017-020-022-023-036>040-048>070-242200-
SOUTHEAST SOUTH DAKOTA

CITY           SKY/WX    TMP DP  RH WIND       PRES   REMARKS
SIOUX FALLS    CLOUDY    75  38  26 NW10      29.88S
HURON          SUNNY     81  33  17 NW13      29.88R
CHAMBERLAIN    MOSUNNY   76  32  20 W5        29.92S
MITCHELL       SUNNY     78  36  21 NW6       29.90R HAZE
YANKTON        MOSUNNY   73  41  31 NW5       29.90R
$$

ABBREVIATIONS USED IN REMARKS
   TC - TEMPERATURE IN CELSIUS
  WCI - WIND CHILL INDEX
   HX - HEAT INDEX
  VSB - VISIBILITY




USA.gov is the U.S. government's official web portal to all federal, state and local government web resources and services.